Regional Weather Roundup
Issued by NWS

Home | Current Version | Previous Version | Text Only | Print | Product List | Glossary On
Versions: 1 2 3 4 5 6 7 8 9 10 11 12 13 14 15 16 17 18 19 20 21 22 23 24 25 26 27 28 29 30 31 32 33 34 35 36 37 38 39 40 41 42 43 44 45 46 47 48 49 50
000
ASUS43 KMPX 031110
RWRMN
WEATHER ROUNDUP FOR MINNESOTA
NATIONAL WEATHER SERVICE TWIN CITIES/CHANHASSEN MN
600 AM CDT MON AUG 03 2015


NOTE: "FAIR" INDICATES FEW OR NO CLOUDS BELOW 12,000 FEET WITH NO
SIGNIFICANT WEATHER AND/OR OBSTRUCTIONS TO VISIBILITY. N/A MEANS
CURRENT SKY AND/OR WEATHER CONDITIONS ARE NOT AVAILABLE.

MNZ060>063-068>070-031200-
   Twin Cities Metro

CITY           SKY/WX    TMP DP  RH WIND       PRES   REMARKS
TWIN CITIES    CLEAR     60  53  77 NW6       29.88R
ST PAUL        CLEAR     60  52  74 CALM      29.87S
CRYSTAL        CLEAR     61  53  75 W6        29.86R
BLAINE         CLEAR     57  54  88 W5        29.88R
LAKEVILLE      CLEAR     54  52  94 W3        29.88S
EDEN PRAIRIE   CLEAR     60  53  77 W6        29.87S
SOUTH ST PAUL  CLEAR     59  53  79 W3        29.87S
LAKE ELMO      FAIR      55  52  88 CALM      29.88R
$$
MNZ001>005-007-008-013>017-022>024-027-028-031200-
   Northwest Minnesota

CITY           SKY/WX    TMP DP  RH WIND       PRES   REMARKS
BEMIDJI        CLEAR     51  46  82 W6        29.88R
HALLOCK        CLEAR     48  46  93 W5        29.89R
ROSEAU         CLEAR     54  48  82 W7        29.86R
WARROAD        PTCLDY    54  48  82 W6        29.86R
THIEF RVR FALL CLEAR     50  46  87 W6        29.90R
CROOKSTON      CLEAR     48  46  93 CALM      29.92R
FOSSTON        CLEAR     43  39  87 CALM      29.91R
DETROIT LAKES  CLEAR     54  50  87 NW3       29.93R
MOORHEAD       CLEAR     52  48  87 CALM      29.93R
PARK RAPIDS    CLEAR     50  47  89 NW6       29.90R
MAHNOMEN       FAIR      47  46  96 SW5       29.91R
$$
MNZ006-009>011-018-025>026-031200-
   North Central Minnesota

CITY           SKY/WX    TMP DP  RH WIND       PRES   REMARKS
BAUDETTE       CLOUDY    57  50  77 W8        29.83R
FLAG ISLAND    CLOUDY    57  54  88 W16       29.81S
INTL FALLS     CLOUDY    56  51  84 NW7       29.79R
WASKISH        CLOUDY    57  52  82 W13G18    29.85R
BIG FORK       PTCLDY    55  48  76 CALM      29.84R
LONGVILLE      CLEAR     52  46  82 CALM      29.86R
GRAND RAPIDS   CLEAR     55  46  71 NW8       29.84R
CRANE LAKE     CLOUDY    55  50  82 W6        29.78R
ORR            MOCLDY    55  46  71 CALM      29.77R
COOK           MOCLDY    55  48  76 W7        29.80R
WALKER         FAIR      53  46  78 W6        29.88R
$$
MNZ012-019>021-037-031200-
   Northeast Minnesota

CITY           SKY/WX    TMP DP  RH WIND       PRES   REMARKS
DULUTH         MOCLDY    57  46  66 NW12      29.80R
ELY            CLOUDY    55  48  76 W6        29.76R
HIBBING        CLOUDY    57  47  69 W9        29.81R
EVELETH        MOCLDY    57  46  67 W10       29.81R
DULUTH HARBOR  CLEAR     63  52  67 W22       29.78S
TWO HARBORS    CLEAR     57  48  72 W7        29.75S
SILVER BAY     CLEAR     54  46  76 W3        29.73F
GRAND MARAIS     N/A     46  42  86 W5        29.71R
G MARAIS ARPRT   N/A     55  46  71 W5        29.73S
$$
MNZ029>031-032-039>041-046>048-054>057-064-031200-
   West Central Minnesota

CITY           SKY/WX    TMP DP  RH WIND       PRES   REMARKS
FERGUS FALLS   CLEAR     52  50  93 CALM      29.93R
WHEATON        CLEAR     54  50  87 CALM      29.95S
MORRIS         CLEAR     50  48  93 NW7       29.92S
ALEXANDRIA     CLEAR     55  51  86 N5        29.93R
ELBOW LAKE     FAIR      53  50  89 NW8       29.92S
WADENA         CLEAR     48  48 100 W5        29.90R
GLENWOOD       CLEAR     54  50  87 W7        29.92R
APPLETON       CLEAR     54  50  87 CALM      29.92S
BENSON         CLEAR     48  46  93 CALM      29.92S
ORTONVILLE     CLEAR     57  52  82 NW3       29.93S
MADISON        CLEAR     54  48  82 W7        29.93S
WILLMAR        FAIR      52  50  93 NW5       29.93R
$$
MNZ033>034-036-042>043-049>051-058-059-031200-
   Central Minnesota

CITY           SKY/WX    TMP DP  RH WIND       PRES   REMARKS
ST CLOUD       CLEAR     53  50  89 NW3       29.89R
SAUK CENTRE    FAIR      52  49  88 CALM      29.91S
PAYNESVILLE    CLEAR     48  47  97 SW3       29.91S
AITKIN         CLEAR     55  48  76 W3        29.84S
PINE RIVER     CLEAR     54  48  82 W3        29.91S
BRAINERD       CLEAR     55  51  86 W9        29.88R
STAPLES        CLEAR     48  48 100 W5        29.90R
LONG PRAIRIE   FAIR      54  50  87 CALM      29.91S
LITCHFIELD     CLEAR     63  55  77 W8        29.91R
BUFFALO        CLEAR     59  52  79 W6        29.89S
MAPLE LAKE     CLEAR     59  54  82 W5        29.90R
$$
MNZ037-044-045-052-053-031200-
   East Central Minnesota

CITY           SKY/WX    TMP DP  RH WIND       PRES   REMARKS
PRINCETON      CLEAR     52  50  93 W3        29.88S
MORA           CLEAR     52  46  82 W3        29.87S
CAMBRIDGE      CLEAR     55  46  71 CALM      29.85S
RUSH CITY      MOCLDY    53  49  86 CALM      29.86S
MOOSE LAKE     CLOUDY    55  48  76 W6        29.81S
HINCKLEY       FAIR      54  50  87 W7        29.84S
CLOQUET        CLOUDY    55  45  67 W8        29.82R
MCGREGOR       MOCLDY    57  46  67 W5        29.85R
$$
MNZ071>073-080-081-089-090-097-098-031200-
   Southwest Minnesota

CITY           SKY/WX    TMP DP  RH WIND       PRES   REMARKS
MONTEVIDEO     CLEAR     55  50  82 NW6       29.94S
GRANITE FALLS  CLEAR     52  51  95 W5        29.94S
CANBY          CLEAR     56  50  81 W5        29.95S
MARSHALL       CLEAR     54  46  76 W5        29.94S
REDWOOD FALLS  CLEAR     55  52  89 W8        29.91S
OLIVIA         CLEAR     50  46  87 W5        29.91S
PIPESTONE      CLEAR     55  52  88 CALM      29.96R
WINDOM         CLEAR     52  48  87 CALM      29.94S
WORTHINGTON    CLEAR     52  46  82 SW3       29.96R
JACKSON        CLEAR     54  52  94 SW3       29.95R
TRACY          CLEAR     57  52  82 W5        29.94S
SLAYTON        CLEAR     56  54  93 CALM      29.96R
$$
MNZ065>067-074>077-082>085-091>093-031200-
   South Central Minnesota

CITY           SKY/WX    TMP DP  RH WIND       PRES   REMARKS
MANKATO        CLEAR     55  52  88 W5        29.91R
NEW ULM        CLEAR     52  52 100 W7        29.92R
ST JAMES         N/A     55  52  88 W3        29.93R
FAIRMONT       CLEAR     55  48  76 CALM      29.92S
GLENCOE        CLEAR     58  53  85 W7        29.89S
FARIBAULT      CLEAR     55  52  88 CALM      29.90R
OWATONNA       CLEAR     54  50  87 CALM      29.90S
WASECA         CLEAR     52  50  93 CALM      29.91S
ALBERT LEA     CLEAR     55  54  94 CALM      29.91S
$$
MNZ078>079-086>088-094>096-031200-
   Southeast Minnesota

CITY           SKY/WX    TMP DP  RH WIND       PRES   REMARKS
ROCHESTER      CLEAR     53  50  89 W8        29.90S
RED WING       CLEAR     54  52  94 CALM      29.86S
STANTON        CLEAR     53  51  90 CALM      29.88R
DODGE CENTER   CLEAR     52  50  93 W3        29.90S
WINONA         CLEAR     59  54  82 CALM      29.87R
AUSTIN         CLEAR     57  54  88 CALM      29.90S
PRESTON        CLEAR     54  50  86 W6        29.90S
$$
ABBREVIATIONS USED IN REMARKS
   TC - TEMPERATURES IN CELSIUS
  WCI - WIND CHILL INDEX
   HX - HEAT INDEX
  VSB - VISIBILITY
$$



USA.gov is the U.S. government's official web portal to all federal, state and local government web resources and services.